Shelbyville, IN

11:06 AM EDT on June 23, 2017 (GMT -0400)
Shelbyville Municipal

Weather History for KGEZ - November, 2013

Change the Weather History Date:

Sunday, November 10, 2013

  Actual Average Record
Temperature  
Mean Temperature 41 °F 46 °F  
Max Temperature 50 °F 56 °F 72 °F (1999)
Min Temperature 31 °F 36 °F 22 °F (2008)
Degree Days  
Heating Degree Days 24 19  
Month to date heating degree days 169 172  
Since 1 July heating degree days 514 607  
Cooling Degree Days 0 0  
Month to date cooling degree days 0 0  
Year to date cooling degree days 1179 913  
Moisture  
Dew Point 30 °F    
Average Humidity 66    
Maximum Humidity 85    
Minimum Humidity 46    
Precipitation  
Precipitation 0.00 in 0.11 in 1.41 in (2002)
Month to date precipitation 0.36 1.24  
Year to date precipitation 28.08 37.80  
Sea Level Pressure  
Sea Level Pressure 30.29 in    
Wind  
Wind Speed 8 mph (WNW)    
Max Wind Speed 18 mph    
Max Gust Speed 24 mph    
Visibility 10 miles    
Events      
T = Trace of Precipitation, MM = Missing Value Source: NWS Daily Summary

Daily Weather History Graph

Daily Weather History Graph

Search for Another Location

Airport or City:

Trip Planner

Search our weather history database for the weather conditions in past years. The results will help you decide how hot, cold, wet, or windy it might be!

Date:

Astronomy

Nov. 10, 2013 Rise Set
Actual Time 7:21 AM EST 5:31 PM EST
Civil Twilight 6:53 AM EST 6:00 PM EST
Nautical Twilight 6:21 AM EST 6:32 PM EST
Astronomical Twilight 5:49 AM EST 7:04 PM EST
Moon 1:35 PM EST (11/10) 12:01 AM EST (11/10)
Length of Visible Light 11h 06m
Length of Day
10h 09m
First Quarter, 55% of the Moon is Illuminated
Nov 10
First Quarter
Nov 17
Full
Nov 25
Last Quarter
Dec 2
New
Dec 9
First Quarter

Hourly Weather History & Observations

Time (EST) Temp. Windchill Dew Point Humidity Pressure Visibility Wind Dir Wind Speed Gust Speed Precip Events Conditions
12:53 AM 46.0 °F 42.5 °F 37.0 °F 71% 30.14 in 10.0 mi West 6.9 mph - N/A   Clear
1:53 AM 44.1 °F 40.1 °F 35.1 °F 71% 30.14 in 10.0 mi WSW 6.9 mph - N/A   Clear
2:53 AM 44.1 °F 40.1 °F 35.1 °F 71% 30.15 in 10.0 mi WSW 6.9 mph - N/A   Clear
3:53 AM 46.9 °F - 33.1 °F 59% 30.17 in 10.0 mi WNW 16.1 mph - N/A   Clear
4:53 AM 44.1 °F 38.1 °F 32.0 °F 63% 30.19 in 10.0 mi WNW 11.5 mph - N/A   Clear
5:53 AM 43.0 °F 36.8 °F 32.0 °F 65% 30.22 in 10.0 mi WNW 11.5 mph - N/A   Clear
6:53 AM 41.0 °F 35.2 °F 32.0 °F 70% 30.25 in 10.0 mi WNW 9.2 mph - N/A   Clear
7:53 AM 39.9 °F 33.9 °F 30.0 °F 68% 30.28 in 10.0 mi West 9.2 mph - N/A   Clear
8:53 AM 42.1 °F 35.7 °F 30.0 °F 62% 30.30 in 10.0 mi WNW 11.5 mph - N/A   Clear
9:53 AM 44.1 °F 37.4 °F 30.0 °F 58% 30.32 in 10.0 mi WNW 13.8 mph - N/A   Clear
10:53 AM 46.0 °F 39.9 °F 30.0 °F 54% 30.34 in 10.0 mi WNW 13.8 mph - N/A   Clear
11:53 AM 46.9 °F - 28.9 °F 50% 30.35 in 10.0 mi WNW 12.7 mph - N/A   Clear
12:53 PM 48.0 °F - 28.9 °F 48% 30.34 in 10.0 mi West 12.7 mph - N/A   Clear
1:53 PM 48.9 °F - 30.0 °F 48% 30.34 in 10.0 mi WNW 6.9 mph 20.7 mph N/A   Partly Cloudy
2:53 PM 48.9 °F - 28.9 °F 46% 30.34 in 10.0 mi WNW 11.5 mph - N/A   Clear
3:53 PM 48.9 °F - 30.0 °F 48% 30.34 in 10.0 mi WNW 11.5 mph - N/A   Clear
4:53 PM 48.0 °F - 30.0 °F 50% 30.35 in 10.0 mi NW 9.2 mph - N/A   Clear
5:53 PM 44.1 °F 42.5 °F 28.9 °F 55% 30.35 in 10.0 mi NW 3.5 mph - N/A   Clear
6:53 PM 41.0 °F - 28.9 °F 62% 30.35 in 10.0 mi Calm Calm - N/A   Clear
7:53 PM 37.9 °F - 28.9 °F 70% 30.36 in 10.0 mi Calm Calm - N/A   Clear
8:53 PM 35.1 °F - 28.0 °F 76% 30.37 in 10.0 mi Calm Calm - N/A   Clear
9:53 PM 32.0 °F 25.6 °F 28.0 °F 85% 30.34 in 10.0 mi SE 6.9 mph - N/A   Clear
10:53 PM 32.0 °F 27.5 °F 27.0 °F 82% 30.34 in 10.0 mi WSW 4.6 mph - N/A   Clear
11:53 PM 32.0 °F - 27.0 °F 82% 30.33 in 10.0 mi Calm Calm - N/A   Clear